N222WG KTUS-KWWR

Flight info

Callsign N222WG
Flight time N/A
Altitude 41000
Route TUS9 MESCA SSO J104 ONM
Aircraft CL30/M-SDFGIRW/S

Departure

Time 2026-04-24 01:19
Airport Tucson International Airport (KTUS)

Arrival

Time N/A
Airport West Woodward Airport (KWWR)
Time Latitude Longitude Altitude Speed Heading
2026-04-24 00:53 32.13104 -110.93964 2580 ft 0 kts 226°
2026-04-24 01:10 32.13086 -110.93996 2578 ft 11 kts 244°
2026-04-24 01:10 32.13016 -110.94089 2575 ft 18 kts 225°
2026-04-24 01:11 32.12924 -110.94236 2572 ft 24 kts 224°
2026-04-24 01:11 32.12817 -110.94359 2572 ft 18 kts 225°
2026-04-24 01:11 32.12730 -110.94461 2572 ft 19 kts 224°
2026-04-24 01:11 32.12632 -110.94576 2573 ft 16 kts 224°
2026-04-24 01:12 32.12568 -110.94650 2574 ft 9 kts 225°
2026-04-24 01:12 32.12543 -110.94681 2574 ft 0 kts 224°
2026-04-24 01:14 32.12542 -110.94681 2574 ft 1 kts 224°
2026-04-24 01:14 32.12479 -110.94703 2575 ft 15 kts 141°
2026-04-24 01:14 32.12376 -110.94582 2579 ft 24 kts 136°
2026-04-24 01:14 32.12244 -110.94428 2585 ft 28 kts 136°
2026-04-24 01:15 32.12111 -110.94270 2591 ft 23 kts 135°
2026-04-24 01:15 32.11986 -110.94125 2596 ft 26 kts 136°
2026-04-24 01:15 32.11845 -110.93961 2601 ft 31 kts 135°
2026-04-24 01:15 32.11676 -110.93764 2606 ft 36 kts 135°
2026-04-24 01:16 32.11486 -110.93541 2614 ft 40 kts 135°
2026-04-24 01:16 32.11282 -110.93303 2620 ft 37 kts 134°
2026-04-24 01:16 32.11119 -110.93110 2626 ft 29 kts 134°
2026-04-24 01:16 32.10997 -110.92964 2629 ft 21 kts 136°
2026-04-24 01:17 32.10897 -110.92849 2633 ft 17 kts 135°
2026-04-24 01:17 32.10810 -110.92745 2636 ft 19 kts 134°
2026-04-24 01:17 32.10699 -110.92619 2640 ft 24 kts 135°
2026-04-24 01:17 32.10568 -110.92464 2646 ft 28 kts 135°
2026-04-24 01:18 32.10419 -110.92292 2652 ft 28 kts 135°
2026-04-24 01:18 32.10277 -110.92271 2652 ft 20 kts 235°
2026-04-24 01:18 32.10308 -110.92410 2648 ft 27 kts 314°
2026-04-24 01:18 32.10637 -110.92799 2635 ft 106 kts 313°
2026-04-24 01:19 32.11314 -110.93576 2860 ft 153 kts 313°
2026-04-24 01:19 32.12115 -110.94488 3538 ft 173 kts 312°
2026-04-24 01:19 32.12984 -110.95557 4457 ft 184 kts 310°
2026-04-24 01:19 32.13840 -110.96606 5564 ft 181 kts 310°
2026-04-24 01:20 32.14707 -110.97669 6506 ft 185 kts 310°
2026-04-24 01:20 32.15596 -110.98761 7413 ft 190 kts 310°
2026-04-24 01:20 32.16502 -110.99879 8297 ft 194 kts 310°
2026-04-24 01:20 32.17433 -111.01032 9164 ft 197 kts 310°
2026-04-24 01:21 32.18405 -111.02170 9995 ft 203 kts 326°
2026-04-24 01:21 32.19759 -111.02567 10769 ft 210 kts
2026-04-24 01:21 32.21005 -111.01764 11534 ft 210 kts 54°
2026-04-24 01:21 32.21492 -111.00201 12306 ft 207 kts 86°
2026-04-24 01:22 32.21623 -110.98506 13061 ft 211 kts 89°
2026-04-24 01:22 32.21730 -110.96757 13795 ft 214 kts 90°
2026-04-24 01:22 32.21821 -110.94988 14507 ft 218 kts 91°
2026-04-24 01:22 32.21902 -110.93197 15191 ft 222 kts 91°
2026-04-24 01:23 32.21978 -110.91355 15861 ft 226 kts 91°
2026-04-24 01:23 32.22052 -110.89476 16514 ft 231 kts 92°
2026-04-24 01:23 32.22124 -110.87556 16973 ft 242 kts 92°
2026-04-24 01:23 32.22198 -110.85489 17003 ft 263 kts 91°
2026-04-24 01:24 32.22279 -110.83234 17006 ft 279 kts 91°
2026-04-24 01:24 32.22364 -110.80869 17005 ft 296 kts 91°
2026-04-24 01:24 32.22453 -110.78379 17003 ft 312 kts 91°
2026-04-24 01:24 32.22546 -110.75771 17051 ft 330 kts 90°
2026-04-24 01:25 32.22644 -110.73046 17925 ft 331 kts 91°
2026-04-24 01:25 32.22741 -110.70321 18827 ft 331 kts 91°
2026-04-24 01:25 32.22836 -110.67584 19543 ft 337 kts 91°
2026-04-24 01:25 32.22931 -110.64801 20212 ft 343 kts 91°
2026-04-24 01:26 32.23027 -110.61983 20888 ft 348 kts 91°
2026-04-24 01:26 32.23125 -110.59087 21539 ft 353 kts 92°
2026-04-24 01:26 32.23223 -110.56197 22172 ft 358 kts 92°
2026-04-24 01:26 32.23323 -110.53204 22794 ft 363 kts 92°
2026-04-24 01:27 32.23422 -110.50232 23377 ft 367 kts 92°
2026-04-24 01:27 32.23523 -110.47177 23945 ft 372 kts 92°
2026-04-24 01:27 32.23622 -110.44125 24487 ft 377 kts 92°
2026-04-24 01:27 32.23724 -110.40997 25051 ft 381 kts 92°
2026-04-24 01:28 32.23827 -110.37812 25580 ft 386 kts 92°
2026-04-24 01:28 32.23928 -110.34648 26093 ft 391 kts 92°
2026-04-24 01:28 32.24033 -110.31365 26614 ft 395 kts 92°
2026-04-24 01:28 32.24101 -110.29227 26940 ft 397 kts 92°